Regional Weather Roundup
Issued by NWS Charleston, SC

Current Version | Previous Version | Text Only | Print | Product List | Glossary Off
Versions: 1 2 3 4 5 6 7 8 9 10 11 12 13 14 15 16 17 18 19 20 21 22 23 24 25 26 27 28 29 30 31 32 33 34 35 36 37 38 39 40 41 42 43 44 45 46 47 48 49 50

000
ASUS42 KCHS 280527
RWRCHS
REGIONAL WEATHER ROUNDUP
NATIONAL WEATHER SERVICE CHARLESTON SC
100 AM EDT TUE APR 28 2015

NOTE: "FAIR" INDICATES FEW OR NO CLOUDS BELOW 12,000 FEET WITH NO
SIGNIFICANT WEATHER AND/OR OBSTRUCTIONS TO VISIBILITY.

NOT ALL STATIONS ARE QUALITY CONTROLLED BY THE NATIONAL
WEATHER SERVICE. USE DATA WITH CAUTION...ESPECIALLY
DEWPOINT OBSERVATIONS.

SCZ027-030-031-034>040-042>050-280600-
...SOUTHEAST SOUTH CAROLINA...

CITY           SKY/WX    TMP DP  RH WIND       PRES   REMARKS
N CHARLESTON   CLOUDY    61  55  81 CALM      29.88S
WATERFRONT PRK   N/A     64 N/A N/A CALM        N/A
MOUNT PLEASANT FAIR      57  55  94 MISG      29.87F
PINOPOLIS      NOT AVBL
MONCKS CORNER  FAIR      55  54  94 CALM      29.88S
SUMMERVILLE    FAIR      55  55 100 CALM      29.88F
BEAUFORT MCAS  CLOUDY    60  57  89 CALM      29.88S
BEAUFORT ARPT  FAIR      61  59  94 CALM      29.88R
HILTON HEAD IS CLOUDY    61  59  94 CALM      29.89S
WALTERBORO     CLOUDY    54  52  94 CALM      29.89S
ALLENDALE      FAIR      57  55  94 CALM      29.88S

...SOUTHERN MIDLANDS AND PEE DEE...

CITY           SKY/WX    TMP DP  RH WIND       PRES   REMARKS
GEORGETOWN     NOT AVBL
KINGSTREE      NOT AVBL
ORANGEBURG     CLOUDY    56  51  84 CALM      29.89R
BARNWELL       FAIR      55  54  94 CALM      29.89S
AIKEN          FAIR      52  50  93 CALM      29.93R
MANNING        FAIR      57   9  14 NE10      29.91S
COLUMBIA       PTCLDY    62  36  37 NE12G17   29.91R
SUMTER         PTCLDY    53  44  70 NE8       29.90R
FLORENCE       CLEAR     55  38  52 NE8       29.92S
MYRTLE BEACH   CLOUDY    59  39  47 N13       29.92S
N MYRTLE BEACH CLOUDY    57  40  52 N9        29.90S

$$

GAZ063-065-086>088-099>101-113>116-118-119-134>141-150-280600-
...SOUTHEAST GEORGIA...

CITY           SKY/WX    TMP DP  RH WIND       PRES   REMARKS
SAVANNAH ARPT  CLOUDY    63  59  87 CALM      29.88S
HUNTER AAF     CLOUDY    61  61 100 CALM      29.86S
FORT STEWART   CLOUDY    61  59  94 CALM      29.85S FOG
STATESBORO       N/A     56  56 100 CALM      29.88F
SYLVANIA       CLOUDY    56  56 100 CALM      29.89S
CLAXTON        FAIR      59  59 100 CALM      29.88F

...CSRA...CENTRAL AND FAR SOUTHEAST GEORGIA...

CITY           SKY/WX    TMP DP  RH WIND       PRES   REMARKS
THOMSON        CLOUDY    56  56 100 CALM      29.93F
AUGUSTA-BUSH   CLOUDY    54  53  97 CALM      29.88S
AUGUSTA-DANIEL CLOUDY    63  51  65 CALM      29.89S
SWAINSBORO     NOT AVBL
VIDALIA        CLOUDY    61  57  88 E3        29.87F
EASTMAN        FAIR      58  58 100 CALM      29.89F
HAZLEHURST     FAIR      64  62  91 E3        29.86S
ALMA           CLOUDY    62  60  93 CALM      29.87R
WAYCROSS       CLOUDY    66  65  97 CALM      29.87S
JESUP          FAIR      63  63 100 CALM      29.89R
BAXLEY         FAIR      64  63  94 CALM      29.87R
BRUNSWICK      CLOUDY    63  59  88 CALM      29.89R
SAINT SIMONS   CLOUDY    66  58  75 SE8       29.88R

$$

SCZ027-028-034-036>038-045-046-048>050-GAZ119-141-280600-
...LAKE AND SUPPLEMENTAL COASTAL OBSERVATIONS...

STATION/POSITION TIME  TEMP    WIND        PRES    WAVE   SWELL
                       AIR SEA DIR/SP/G            HT/PER HT/PER/DIR
                 (UTC) (F)     (DEG/KT/KT) (MB)    (FT/S) (FT/S/D)
UPR LAKE MARION  NOT AVBL
WINYAH BAY       0400   58        CALM     1011.0S
LAKE MURRAY      0400   60      40/  5/  7 1011.9S
ACE BASIN NERRS  NOT AVBL
FORT PULASKI     0400   65 70   CALM  /  1 1012.2F
SAPELO ISLAND    0500   63      90/  3     1011.0S

$$

ANZ835-935-AMZ111-154-330-350-352-354-370-450-454-472-280600-
...C-MAN AND BUOY OBSERVATIONS...

STATION/POSITION TIME  TEMP    WIND        PRES    WAVE   SWELL
                       AIR SEA DIR/SP/G            HT/PER HT/PER/DIR
                 (UTC) (F)     (DEG/KT/KT) (MB)    (FT/S) (FT/S/D)
BUOY 41004       0450   67 71  280/  4/  6 1011.1F   2/ 5   2/ 5
BUOY 41008       0450   67 69   90/  8/ 10 1011.7F   2/ 6   2/ 70/ 6
FOLLY BEACH CMAN 0500   64     280/  2/  3 1011.7F
CAPERS NEARSHORE 0408   67     250/  6/  8 1011.8F
FRIPP NEARSHORE  0400   67     230/  4/  6 1011.5F


STATION/POSITION TIME  TEMP    WIND        PRES    WAVE   SWELL
                       AIR SEA DIR/SP/G            HT/PER HT/PER/DIR
                 (UTC) (F)     (DEG/KT/KT) (MB)    (FT/S) (FT/S/D)
5E ST. MARYS GA  0421      70                N/A     2/ 6
FRYING PAN BUOY  0450   67 71   10/ 14/ 16 1011.8F   3/ 8   2/100/ 8
BUOY 41025       0450   60 74  360/ 16/ 21 1011.3R   3/ 8   2/ 70/ 8
CAPE LOOKOUT NC  0500   58      10/  9/ 15 1011.6R
BUOY 41002       0450   66 70  350/ 12/ 16 1011.3R   5/ 8   3/ 20/ 8
BUOY 41010       0420   75 79   30/  8/ 10 1011.3R
ST AUGUSTINE FL  0500   69 69   80/  6/  7 1012.0S


$$


USA.gov is the U.S. government's official web portal to all federal, state and local government web resources and services.